EW5857 Weather Reports


Display with metric or nautical units.
time (UTC)temp
F
wind
direction
speed
MPH
gust
MPH
rain 1hr
in
rain 24hr
in
rain mn
in
humidity
%
barometer
mb
20180721055208 62 0 1.0 4.0 0.00 0.00 0.00 78 1011.2
20180721054708 62 0 2.0 4.0 0.00 0.00 0.00 79 1011.1
20180721054210 62 355 2.0 4.0 0.00 0.00 0.00 79 1011.1
20180721053707 62 317 2.0 4.0 0.00 0.00 0.00 79 1011.0
20180721053210 62 298 1.0 4.0 0.00 0.00 0.00 79 1011.0
20180721052707 62 324 1.0 4.0 0.00 0.00 0.00 79 1011.0
20180721052210 62 315 1.0 3.0 0.00 0.00 0.00 80 1010.9
20180721051708 62 306 1.0 3.0 0.00 0.00 0.00 80 1010.9
20180721051209 62 312 0.0 4.0 0.00 0.00 0.00 80 1010.9
20180721050708 62 308 0.0 4.0 0.00 0.00 0.00 80 1010.9
20180721050209 62 308 1.0 3.0 0.00 0.00 0.00 80 1010.9
20180721045708 62 303 1.0 3.0 0.00 0.00 0.00 80 1010.8
20180721045209 62 313 1.0 3.0 0.00 0.00 0.00 80 1010.7
20180721044708 62 313 1.0 3.0 0.00 0.00 0.00 80 1010.6
20180721044213 62 313 1.0 1.0 0.00 0.00 0.00 80 1010.6
20180721043708 62 313 0.0 1.0 0.00 0.00 0.00 79 1010.6
20180721043210 62 348 0.0 0.0 0.00 0.00 0.00 79 1010.6
20180721042708 62 348 0.0 0.0 0.00 0.00 0.00 79 1010.7
20180721042210 62 348 0.0 3.0 0.00 0.00 0.00 79 1010.6
20180721041709 62 348 0.0 3.0 0.00 0.00 0.00 79 1010.6
20180721041209 62 348 0.0 3.0 0.00 0.00 0.00 79 1010.7
20180721040708 62 348 0.0 3.0 0.00 0.00 0.00 78 1010.6
20180721040209 62 348 0.0 0.0 0.00 0.00 0.00 79 1010.7
20180721035708 62 355 0.0 0.0 0.00 0.00 0.00 78 1010.7
20180721035208 63 355 0.0 0.0 0.00 0.00 0.00 78 1010.8
20180721034708 63 355 0.0 0.0 0.00 0.00 0.00 78 1010.7
20180721034209 63 355 0.0 3.0 0.00 0.00 0.00 78 1010.7
20180721033708 63 355 0.0 3.0 0.00 0.00 0.00 78 1010.7
20180721033209 63 355 0.0 3.0 0.00 0.00 0.00 78 1010.7
20180721032708 63 355 1.0 3.0 0.00 0.00 0.00 78 1010.6
20180721032209 63 355 0.0 2.0 0.00 0.00 0.00 78 1010.7
20180721031709 63 355 0.0 2.0 0.00 0.00 0.00 78 1010.6
20180721031208 63 355 1.0 3.0 0.00 0.00 0.00 78 1010.6
20180721030708 63 355 1.0 3.0 0.00 0.00 0.00 78 1010.7
20180721030209 63 350 1.0 0.0 0.00 0.00 0.00 77 1010.7
20180721025707 63 350 0.0 0.0 0.00 0.00 0.00 77 1010.8
20180721025209 63 350 0.0 0.0 0.00 0.00 0.00 77 1010.8
20180721024707 63 350 0.0 0.0 0.00 0.00 0.00 77 1010.9
20180721024207 63 350 0.0 0.0 0.00 0.00 0.00 76 1011.0
20180721023706 64 350 0.0 0.0 0.00 0.00 0.00 76 1010.9
20180721023232 64 350 0.0 0.0 0.00 0.00 0.00 76 1011.0
20180721022706 64 350 0.0 2.0 0.00 0.00 0.00 75 1010.9
20180721022207 64 350 0.0 2.0 0.00 0.00 0.00 75 1011.1
20180721021706 64 350 0.0 2.0 0.00 0.00 0.00 75 1011.1
20180721021206 64 350 0.0 3.0 0.00 0.00 0.00 75 1011.1
20180721020706 64 350 1.0 5.0 0.00 0.00 0.00 74 1011.2
20180721020208 65 350 2.0 5.0 0.00 0.00 0.00 74 1011.2
20180721015706 65 0 2.0 5.0 0.00 0.00 0.00 74 1011.2
20180721015207 65 22 2.0 5.0 0.00 0.00 0.00 74 1011.2
20180721014706 65 15 2.0 7.0 0.00 0.00 0.00 73 1011.3
20180721014207 65 46 2.0 7.0 0.00 0.00 0.00 73 1011.3
20180721013706 65 12 2.0 7.0 0.00 0.00 0.00 73 1011.2
20180721013208 65 42 2.0 4.0 0.00 0.00 0.00 73 1011.2
20180721012706 65 32 2.0 4.0 0.00 0.00 0.00 73 1011.1
20180721012206 65 0 3.0 4.0 0.00 0.00 0.00 73 1011.0
20180721011706 65 348 2.0 4.0 0.00 0.00 0.00 72 1011.1
20180721011206 65 350 2.0 5.0 0.00 0.00 0.00 72 1011.2
20180721010706 66 12 2.0 5.0 0.00 0.00 0.00 72 1011.2
20180721010208 66 24 2.0 7.0 0.00 0.00 0.00 72 1011.2
20180721005706 66 28 2.0 7.0 0.00 0.00 0.00 71 1011.2
20180721005208 66 50 3.0 7.0 0.00 0.00 0.00 71 1011.2
20180721004707 66 351 2.0 6.0 0.00 0.00 0.00 71 1011.3
20180721004209 66 32 2.0 6.0 0.00 0.00 0.00 71 1011.4
20180721003707 66 41 2.0 6.0 0.00 0.00 0.00 71 1011.5
20180721003207 66 21 2.0 5.0 0.00 0.00 0.00 71 1011.5
20180721002706 66 13 1.0 5.0 0.00 0.00 0.00 72 1011.5
20180721002208 66 5 2.0 4.0 0.00 0.00 0.00 72 1011.4
20180721001706 66 346 1.0 6.0 0.00 0.00 0.00 72 1011.5
20180721001207 66 335 2.0 6.0 0.00 0.00 0.00 73 1011.5
20180721000706 66 347 2.0 6.0 0.00 0.00 0.00 73 1011.5
20180721000209 66 19 1.0 5.0 0.00 0.00 0.00 73 1011.4
20180720235707 66 25 0.0 4.0 0.00 0.00 0.00 74 1011.4
20180720235208 66 355 0.0 4.0 0.00 0.00 0.00 74 1011.5
20180720234706 66 0 1.0 4.0 0.00 0.00 0.00 74 1011.5
20180720234209 66 5 1.0 5.0 0.00 0.00 0.00 74 1011.5
20180720233706 66 328 1.0 5.0 0.00 0.00 0.00 74 1011.6
20180720233208 66 11 2.0 5.0 0.00 0.00 0.00 74 1011.6
20180720232707 66 350 1.0 4.0 0.00 0.00 0.00 75 1011.6
20180720232208 66 331 0.0 3.0 0.00 0.00 0.00 74 1011.6
20180720231708 66 328 1.0 4.0 0.00 0.00 0.00 74 1011.6
20180720231210 66 328 1.0 4.0 0.00 0.00 0.00 74 1011.7
20180720230707 66 329 1.0 3.0 0.00 0.00 0.00 74 1011.7
20180720230208 66 323 0.0 4.0 0.00 0.00 0.00 74 1011.8
20180720225706 66 336 1.0 4.0 0.00 0.00 0.00 74 1011.7
20180720225208 66 336 2.0 5.0 0.00 0.00 0.00 74 1011.7
20180720224706 67 0 2.0 5.0 0.00 0.00 0.00 73 1011.7
20180720224207 67 340 2.0 5.0 0.00 0.00 0.00 73 1011.7
20180720223706 67 5 2.0 5.0 0.00 0.00 0.00 73 1011.6
20180720223207 67 304 2.0 5.0 0.00 0.00 0.00 73 1011.7
20180720222709 67 22 2.0 5.0 0.00 0.00 0.00 73 1011.7
20180720222210 67 294 2.0 5.0 0.00 0.00 0.00 72 1011.7
20180720221713 67 342 2.0 5.0 0.00 0.00 0.00 72 1011.7
20180720221209 67 32 2.0 5.0 0.00 0.00 0.00 72 1011.7
20180720220707 67 306 1.0 5.0 0.00 0.00 0.00 72 1011.8
20180720220208 67 328 2.0 5.0 0.00 0.00 0.00 71 1011.8
20180720215706 67 335 1.0 7.0 0.00 0.00 0.00 71 1011.9
20180720215208 67 348 2.0 7.0 0.00 0.00 0.00 71 1012.1
20180720214706 68 346 2.0 7.0 0.00 0.00 0.00 71 1012.1
20180720214207 68 306 2.0 5.0 0.00 0.00 0.00 71 1012.0
20180720213707 68 322 1.0 5.0 0.00 0.00 0.00 71 1012.1
20180720213207 68 337 1.0 3.0 0.00 0.00 0.00 71 1012.1
20180720212706 68 307 1.0 4.0 0.00 0.00 0.00 70 1012.3
20180720212208 68 348 1.0 4.0 0.00 0.00 0.00 70 1012.3
20180720211706 69 355 1.0 4.0 0.00 0.00 0.00 70 1012.3
20180720211207 69 295 1.0 7.0 0.00 0.00 0.00 70 1012.3
20180720210707 69 269 1.0 7.0 0.00 0.00 0.00 70 1012.3
20180720210208 69 346 1.0 7.0 0.00 0.00 0.00 70 1012.4
20180720205708 69 308 0.0 3.0 0.00 0.00 0.00 70 1012.4
20180720205207 69 5 0.0 4.0 0.00 0.00 0.00 70 1012.4
20180720204707 69 333 1.0 4.0 0.00 0.00 0.00 70 1012.5
20180720204209 69 335 1.0 7.0 0.00 0.00 0.00 70 1012.5
20180720203706 69 321 2.0 9.0 0.00 0.00 0.00 70 1012.5
20180720203208 69 295 2.0 9.0 0.00 0.00 0.00 69 1012.4
20180720202707 70 293 2.0 9.0 0.00 0.00 0.00 69 1012.4
20180720202208 70 306 2.0 4.0 0.00 0.00 0.00 68 1012.4
20180720201706 70 284 1.0 6.0 0.00 0.00 0.00 68 1012.5
20180720201206 70 325 1.0 6.0 0.00 0.00 0.00 68 1012.5
20180720200707 70 17 0.0 6.0 0.00 0.00 0.00 68 1012.4
20180720200209 70 343 1.0 7.0 0.00 0.00 0.00 67 1012.4
20180720195706 71 300 1.0 7.0 0.00 0.00 0.00 67 1012.3
20180720195207 71 320 2.0 7.0 0.00 0.00 0.00 67 1012.3
20180720194706 71 294 2.0 6.0 0.00 0.00 0.00 67 1012.3
20180720194207 71 355 2.0 8.0 0.00 0.00 0.00 67 1012.3
20180720193706 71 350 3.0 9.0 0.00 0.00 0.00 66 1012.3
20180720193208 71 355 3.0 9.0 0.00 0.00 0.00 66 1012.2
20180720192706 71 29 3.0 9.0 0.00 0.00 0.00 66 1012.2
20180720192208 72 32 3.0 8.0 0.00 0.00 0.00 66 1012.1
20180720191709 72 5 3.0 9.0 0.00 0.00 0.00 66 1012.1
20180720191206 72 301 3.0 9.0 0.00 0.00 0.00 66 1012.1
20180720190706 72 326 3.0 9.0 0.00 0.00 0.00 67 1012.0
20180720190208 72 13 2.0 5.0 0.00 0.00 0.00 66 1012.1
20180720185706 72 26 2.0 8.0 0.00 0.00 0.00 66 1012.1
20180720185207 72 268 3.0 8.0 0.00 0.00 0.00 66 1012.2
20180720184706 72 31 3.0 8.0 0.00 0.00 0.00 65 1012.2
20180720184207 73 355 3.0 8.0 0.00 0.00 0.00 64 1012.2
20180720183705 73 18 3.0 10.0 0.00 0.00 0.00 63 1012.1
20180720183208 73 279 4.0 10.0 0.00 0.00 0.00 61 1012.2
20180720182706 73 19 3.0 10.0 0.00 0.00 0.00 59 1012.2
20180720182207 73 22 3.0 8.0 0.00 0.00 0.00 58 1012.2
20180720181710 74 341 3.0 8.0 0.00 0.00 0.00 57 1012.2
20180720181206 74 5 3.0 8.0 0.00 0.00 0.00 56 1012.2
20180720180706 74 15 3.0 6.0 0.00 0.00 0.00 55 1012.2
20180720180208 74 15 3.0 7.0 0.00 0.00 0.00 54 1012.2
20180720175706 75 5 3.0 8.0 0.00 0.00 0.00 52 1012.2
20180720175206 75 307 3.0 8.0 0.00 0.00 0.00 49 1012.2
20180720174706 75 9 3.0 8.0 0.00 0.00 0.00 46 1012.2
20180720174209 76 330 2.0 7.0 0.00 0.00 0.00 45 1012.2
20180720173706 76 291 2.0 7.0 0.00 0.00 0.00 44 1012.1
20180720173207 76 296 3.0 7.0 0.00 0.00 0.00 44 1012.1
20180720172706 76 5 2.0 8.0 0.00 0.00 0.00 46 1012.1
20180720172208 76 325 3.0 8.0 0.00 0.00 0.00 45 1012.0
20180720171706 76 286 3.0 8.0 0.00 0.00 0.00 46 1012.1
20180720171206 76 355 3.0 7.0 0.00 0.00 0.00 48 1012.1
20180720170706 76 237 2.0 7.0 0.00 0.00 0.00 48 1012.1
20180720170207 76 28 3.0 9.0 0.00 0.00 0.00 50 1012.2
20180720165706 76 60 3.0 9.0 0.00 0.00 0.00 49 1012.1
20180720165206 76 16 3.0 9.0 0.00 0.00 0.00 48 1012.1
20180720164706 76 288 2.0 6.0 0.00 0.00 0.00 48 1012.1
20180720164207 76 222 2.0 6.0 0.00 0.00 0.00 44 1012.0
20180720163706 76 311 3.0 7.0 0.00 0.00 0.00 43 1012.1
20180720163208 76 292 2.0 7.0 0.00 0.00 0.00 42 1012.2
20180720162708 76 201 2.0 7.0 0.00 0.00 0.00 42 1012.2
20180720162208 76 264 2.0 7.0 0.00 0.00 0.00 42 1012.2
20180720161708 76 241 2.0 7.0 0.00 0.00 0.00 44 1012.2
20180720161206 76 323 3.0 10.0 0.00 0.00 0.00 44 1012.3
20180720160707 76 304 3.0 11.0 0.00 0.00 0.00 44 1012.4
20180720160207 76 334 3.0 11.0 0.00 0.00 0.00 44 1012.4
20180720155706 76 280 3.0 10.0 0.00 0.00 0.00 43 1012.4
20180720155207 77 12 2.0 8.0 0.00 0.00 0.00 44 1012.4
20180720154706 77 274 3.0 8.0 0.00 0.00 0.00 45 1012.5
20180720154209 77 333 3.0 8.0 0.00 0.00 0.00 44 1012.5
20180720153706 77 277 2.0 8.0 0.00 0.00 0.00 45 1012.6
20180720153207 77 198 2.0 7.0 0.00 0.00 0.00 45 1012.6
20180720152707 77 242 2.0 7.0 0.00 0.00 0.00 46 1012.6
20180720152207 77 317 3.0 7.0 0.00 0.00 0.00 47 1012.7
20180720151706 77 273 3.0 8.0 0.00 0.00 0.00 46 1012.8
20180720151208 77 347 3.0 8.0 0.00 0.00 0.00 47 1012.9
20180720150708 77 351 2.0 9.0 0.00 0.00 0.00 47 1012.9
20180720150208 77 348 3.0 9.0 0.00 0.00 0.00 48 1013.0
20180720145706 77 244 3.0 9.0 0.00 0.00 0.00 48 1013.1
20180720145207 78 23 3.0 9.0 0.00 0.00 0.00 48 1013.1
20180720144706 78 317 3.0 9.0 0.00 0.00 0.00 48 1013.1
20180720144208 78 355 2.0 8.0 0.00 0.00 0.00 48 1013.2
20180720143208 78 334 4.0 9.0 0.00 0.00 0.00 49 1013.2
20180720142706 78 345 4.0 9.0 0.00 0.00 0.00 48 1013.2
20180720142206 78 71 3.0 9.0 0.00 0.00 0.00 49 1013.2
20180720141706 78 338 4.0 9.0 0.00 0.00 0.00 49 1013.2
20180720141207 78 355 4.0 11.0 0.00 0.00 0.00 50 1013.3
20180720140707 78 41 4.0 11.0 0.00 0.00 0.00 50 1013.2
20180720140208 78 327 3.0 8.0 0.00 0.00 0.00 50 1013.3
20180720135706 78 265 2.0 8.0 0.00 0.00 0.00 50 1013.3
20180720135207 78 333 2.0 9.0 0.00 0.00 0.00 49 1013.3
20180720134706 78 313 3.0 9.0 0.00 0.00 0.00 49 1013.3
20180720134207 78 218 3.0 10.0 0.00 0.00 0.00 50 1013.3
20180720133707 78 113 4.0 10.0 0.00 0.00 0.00 47 1013.2
20180720133207 78 325 4.0 10.0 0.00 0.00 0.00 48 1013.2
20180720132706 78 350 3.0 8.0 0.00 0.00 0.00 51 1013.3
20180720132207 78 296 3.0 8.0 0.00 0.00 0.00 50 1013.3
20180720131706 78 149 3.0 8.0 0.00 0.00 0.00 51 1013.4
20180720131207 78 346 2.0 8.0 0.00 0.00 0.00 51 1013.5
20180720130708 78 222 3.0 8.0 0.00 0.00 0.00 52 1013.5
20180720130208 78 355 3.0 8.0 0.00 0.00 0.00 53 1013.5
20180720125706 78 214 3.0 7.0 0.00 0.00 0.00 52 1013.5
20180720125207 77 280 3.0 8.0 0.00 0.00 0.00 54 1013.6
20180720124706 77 288 3.0 8.0 0.00 0.00 0.00 53 1013.6
20180720124208 76 267 2.0 9.0 0.00 0.00 0.00 53 1013.6
20180720123706 77 237 2.0 9.0 0.00 0.00 0.00 53 1013.6
20180720123207 77 0 3.0 10.0 0.00 0.00 0.00 52 1013.7
20180720122706 78 9 3.0 10.0 0.00 0.00 0.00 53 1013.6
20180720122208 77 278 3.0 8.0 0.00 0.00 0.00 53 1013.7
20180720121708 77 220 3.0 9.0 0.00 0.00 0.00 53 1013.7
20180720121206 76 347 3.0 9.0 0.00 0.00 0.00 54 1013.8
20180720120706 76 26 3.0 6.0 0.00 0.00 0.00 55 1013.8
20180720120208 76 37 2.0 6.0 0.00 0.00 0.00 56 1013.8
20180720115706 76 296 2.0 9.0 0.00 0.00 0.00 54 1013.9
20180720115206 76 321 3.0 9.0 0.00 0.00 0.00 57 1013.9
20180720114706 76 191 3.0 9.0 0.00 0.00 0.00 55 1013.9
20180720114208 76 315 2.0 7.0 0.00 0.00 0.00 55 1013.9
20180720113706 76 183 3.0 8.0 0.00 0.00 0.00 57 1013.9
20180720113209 76 286 3.0 8.0 0.00 0.00 0.00 57 1013.9
20180720112707 76 292 3.0 8.0 0.00 0.00 0.00 56 1014.0
20180720112207 76 209 2.0 9.0 0.00 0.00 0.00 56 1014.0
20180720111707 76 230 3.0 12.0 0.00 0.00 0.00 56 1014.0
20180720111207 75 196 4.0 12.0 0.00 0.00 0.00 59 1014.1
20180720110707 74 321 3.0 12.0 0.00 0.00 0.00 58 1014.2
20180720110208 74 294 3.0 8.0 0.00 0.00 0.00 58 1014.2
20180720105707 74 32 3.0 9.0 0.00 0.00 0.00 57 1014.2
20180720105206 74 214 3.0 9.0 0.00 0.00 0.00 60 1014.3
20180720104706 74 235 3.0 9.0 0.00 0.00 0.00 59 1014.2
20180720104207 73 203 3.0 9.0 0.00 0.00 0.00 60 1014.3
20180720103706 73 287 3.0 9.0 0.00 0.00 0.00 62 1014.4
20180720103207 72 343 3.0 9.0 0.00 0.00 0.00 62 1014.3
20180720102708 72 207 3.0 9.0 0.00 0.00 0.00 62 1014.3
20180720102209 72 313 3.0 10.0 0.00 0.00 0.00 62 1014.4
20180720101708 72 263 3.0 10.0 0.00 0.00 0.00 63 1014.3
20180720101207 72 240 3.0 7.0 0.00 0.00 0.00 63 1014.4
20180720100707 72 226 2.0 9.0 0.00 0.00 0.00 63 1014.4
20180720100209 71 192 3.0 9.0 0.00 0.00 0.00 63 1014.4
20180720095707 71 288 3.0 9.0 0.00 0.00 0.00 65 1014.5
20180720095206 71 192 2.0 7.0 0.00 0.00 0.00 65 1014.5
20180720094706 70 24 2.0 5.0 0.00 0.00 0.00 64 1014.5
20180720094207 70 319 2.0 5.0 0.00 0.00 0.00 66 1014.5
20180720093706 70 0 2.0 7.0 0.00 0.00 0.00 65 1014.5
20180720093206 70 355 3.0 7.0 0.00 0.00 0.00 66 1014.5
20180720092706 69 275 3.0 7.0 0.00 0.00 0.00 67 1014.5
20180720092210 69 32 2.0 7.0 0.00 0.00 0.00 68 1014.5
20180720091705 69 271 2.0 8.0 0.00 0.00 0.00 70 1014.5
20180720091206 68 190 3.0 8.0 0.00 0.00 0.00 70 1014.4
20180720090706 68 5 2.0 8.0 0.00 0.00 0.00 70 1014.5
20180720090208 68 340 2.0 9.0 0.00 0.00 0.00 71 1014.5
20180720085708 67 351 3.0 9.0 0.00 0.00 0.00 72 1014.6
20180720085206 67 341 3.0 9.0 0.00 0.00 0.00 72 1014.7
20180720084709 67 346 3.0 8.0 0.00 0.00 0.00 73 1014.7
20180720084209 67 5 2.0 8.0 0.00 0.00 0.00 73 1014.7
20180720083707 66 21 2.0 8.0 0.00 0.00 0.00 73 1014.7
20180720083209 66 355 2.0 6.0 0.00 0.00 0.00 75 1014.8
20180720082708 66 329 2.0 6.0 0.00 0.00 0.00 75 1014.7
20180720082210 66 313 2.0 8.0 0.00 0.00 0.00 75 1014.8
20180720081707 65 306 2.0 8.0 0.00 0.00 0.00 76 1014.8
20180720081208 65 13 2.0 8.0 0.00 0.00 0.00 76 1014.8
20180720080707 65 22 2.0 8.0 0.00 0.00 0.00 76 1014.9
20180720080209 65 294 2.0 5.0 0.00 0.00 0.00 77 1014.9
20180720075708 64 290 1.0 5.0 0.00 0.00 0.00 77 1015.0
20180720075208 64 200 2.0 5.0 0.00 0.00 0.00 77 1015.0
20180720074709 64 16 3.0 5.0 0.00 0.00 0.00 78 1015.0
20180720074217 63 340 2.0 9.0 0.00 0.00 0.00 79 1015.0
20180720073708 63 288 1.0 9.0 0.00 0.00 0.00 80 1015.1
20180720073208 63 320 2.0 9.0 0.00 0.00 0.00 80 1015.1
20180720072708 62 306 2.0 9.0 0.00 0.00 0.00 80 1015.1
20180720072209 62 278 2.0 4.0 0.00 0.00 0.00 81 1015.0
20180720071707 62 350 1.0 4.0 0.00 0.00 0.00 82 1015.1
20180720071209 61 0 1.0 2.0 0.00 0.00 0.00 83 1015.1
20180720070708 61 212 1.0 2.0 0.00 0.00 0.00 83 1015.1
20180720070212 61 355 1.0 4.0 0.00 0.00 0.00 84 1015.1
20180720065708 60 14 1.0 4.0 0.00 0.00 0.00 84 1015.1
20180720065217 60 16 1.0 4.0 0.00 0.00 0.00 85 1015.1
20180720064707 60 19 1.0 4.0 0.00 0.00 0.00 86 1015.1
20180720064209 60 319 1.0 3.0 0.00 0.00 0.00 86 1015.2
20180720063709 59 0 0.0 3.0 0.00 0.00 0.00 87 1015.2
20180720063208 59 0 0.0 3.0 0.00 0.00 0.00 88 1015.2
20180720062707 58 295 0.0 3.0 0.00 0.00 0.00 88 1015.2
20180720062209 58 295 0.0 3.0 0.00 0.00 0.00 88 1015.2
20180720061710 58 296 0.0 3.0 0.00 0.00 0.00 89 1015.3
20180720061209 58 47 1.0 3.0 0.00 0.00 0.00 89 1015.2
20180720060708 57 47 2.0 3.0 0.00 0.00 0.00 89 1015.3
20180720060209 57 49 1.0 3.0 0.00 0.00 0.00 89 1015.2
20180720055708 57 348 1.0 3.0 0.00 0.00 0.00 89 1015.2